QPF
0.00 0.00 0.00 0.00 0.00 0.00 0.00 0.00 0.00 0.00 0.00 0.00 0.00 0.00 0.00 0.00 0.00 0.00 0.00 0.00 0.00 0.00 0.00 0.00 0.00 0.00 0.00 0.00 0.00 0.00 0.00 0.00 0.00 0.00 0.00 0.00 0.00 0.00 0.00 0.00 0.00 0.00 0.00
0.00 0.00 0.00 0.00 0.00 0.00 0.00 0.00 0.00 0.00 0.00 0.00 0.00 0.00 0.00 0.00 0.00 0.00 0.00 0.00 0.00 0.00 0.00 0.00 0.00 0.00 0.00 0.00 0.00 0.00 0.00 0.00 0.00 0.00 0.00 0.00 0.00 0.00 0.00 0.00 0.00 0.00 0.00
0.00 0.00 0.00 0.00 0.00 0.00 0.00 0.00 0.00 0.00 0.00 0.00 0.00 0.00 0.00 0.00 0.00 0.00 0.00 0.00 0.00 0.00 0.00 0.00 0.00 0.00 0.00 0.00 0.00 0.00 0.00 0.00 0.00 0.00 0.00 0.00 0.00 0.00 0.00 0.00 0.00 0.00 0.00
0.00 0.00 0.00 0.00 0.00 0.00 0.00 0.00 0.00 0.00 0.00 0.00 0.00 0.00 0.00 0.00 0.00 0.00 0.00 0.00 0.00 0.00 0.00 0.00 0.00 0.00 0.00 0.00 0.00 0.00 0.00 0.00 0.00 0.00 0.00 0.00 0.00 0.00 0.00 0.00 0.00 0.00 0.00
0.00 0.00 0.00 0.00 0.00 0.00 0.00 0.00 0.00 0.00 0.00 0.00 0.00 0.00 0.00 0.00 0.00 0.00 0.00 0.00 0.00 0.00 0.00 0.00 0.00 0.00 0.00 0.00 0.00 0.00 0.00 0.00 0.00 0.00 0.00 0.00 0.00 0.00 0.00 0.00 0.00 0.00 0.00
0.00 0.00 0.00 0.00 0.00 0.00 0.00 0.00 0.00 0.00 0.00 0.00 0.00 0.00 0.00 0.00 0.00 0.00 0.00 0.00 0.00 0.00 0.00 0.00 0.00 0.00 0.00 0.00 0.00 0.00 0.00 0.00 0.00 0.00 0.00 0.01 0.01 0.00 0.00 0.00 0.00 0.00 0.01
0.00 0.00 0.00 0.00 0.00 0.00 0.00 0.00 0.00 0.00 0.00 0.00 0.00 0.00 0.00 0.00 0.00 0.00 0.00 0.00 0.00 0.00 0.00 0.00 0.00 0.00 0.00 0.00 0.00 0.00 0.00 0.00 0.00 0.00 0.00 0.01 0.01 0.00 0.00 0.01 0.01 0.01 0.00
0.00 0.00 0.00 0.00 0.00 0.00 0.00 0.00 0.00 0.00 0.00 0.00 0.00 0.00 0.00 0.00 0.00 0.00 0.00 0.00 0.00 0.00 0.00 0.00 0.00 0.00 0.00 0.00 0.00 0.00 0.00 0.00 0.00 0.00 0.00 0.00 0.00 0.00 0.00 0.02 0.02 0.01 0.00
0.00 0.00 0.00 0.00 0.00 0.00 0.00 0.00 0.00 0.00 0.00 0.00 0.00 0.00 0.00 0.00 0.00 0.00 0.00 0.00 0.00 0.00 0.00 0.00 0.00 0.00 0.00 0.00 0.00 0.00 0.00 0.00 0.00 0.00 0.00 0.00 0.00 0.00 0.00 0.01 0.02 0.02 0.01
0.00 0.00 0.00 0.00 0.00 0.00 0.00 0.00 0.00 0.00 0.00 0.00 0.00 0.00 0.00 0.00 0.00 0.00 0.00 0.00 0.00 0.00 0.00 0.00 0.00 0.00 0.00 0.00 0.00 0.00 0.00 0.00 0.00 0.00 0.00 0.00 0.00 0.00 0.01 0.01 0.02 0.02 0.02
0.00 0.00 0.00 0.00 0.00 0.00 0.00 0.00 0.00 0.00 0.00 0.00 0.00 0.00 0.00 0.00 0.00 0.00 0.00 0.00 0.00 0.00 0.00 0.00 0.00 0.00 0.00 0.00 0.00 0.00 0.00 0.00 0.00 0.00 0.00 0.01 0.00 0.00 0.00 0.00 0.00 0.01 0.03
0.00 0.00 0.00 0.00 0.00 0.00 0.00 0.00 0.00 0.00 0.00 0.00 0.00 0.00 0.00 0.00 0.00 0.00 0.00 0.00 0.00 0.00 0.00 0.00 0.00 0.00 0.00 0.00 0.00 0.00 0.00 0.00 0.01 0.01 0.01 0.00 0.00 0.00 0.00 0.00 0.00 0.00 0.01
0.00 0.00 0.00 0.00 0.00 0.00 0.00 0.00 0.00 0.00 0.00 0.00 0.00 0.00 0.00 0.00 0.00 0.00 0.00 0.00 0.00 0.00 0.00 0.00 0.00 0.00 0.00 0.00 0.00 0.00 0.00 0.00 0.01 0.01 0.01 0.01 0.01 0.00 0.00 0.00 0.00 0.00 0.00
0.00 0.00 0.00 0.00 0.00 0.00 0.00 0.00 0.00 0.00 0.00 0.00 0.00 0.00 0.00 0.00 0.00 0.00 0.00 0.00 0.00 0.00 0.00 0.00 0.00 0.00 0.00 0.00 0.00 0.00 0.00 0.00 0.00 0.01 0.01 0.01 0.00 0.00 0.00 0.00 0.00 0.00 0.00
0.00 0.00 0.00 0.00 0.00 0.00 0.00 0.00 0.00 0.00 0.00 0.00 0.00 0.00 0.00 0.00 0.00 0.00 0.00 0.00 0.00 0.00 0.00 0.00 0.00 0.00 0.00 0.00 0.00 0.00 0.00 0.00 0.00 0.01 0.01 0.00 0.00 0.01 0.00 0.00 0.00 0.00 0.01
0.00 0.00 0.00 0.00 0.00 0.00 0.00 0.00 0.00 0.00 0.00 0.00 0.00 0.00 0.00 0.00 0.00 0.00 0.00 0.00 0.00 0.00 0.00 0.00 0.00 0.00 0.00 0.00 0.00 0.00 0.00 0.00 0.00 0.00 0.00 0.01 0.01 0.00 0.00 0.00 0.01 0.01 0.01
0.00 0.00 0.00 0.00 0.00 0.00 0.00 0.01 0.00 0.00 0.00 0.00 0.00 0.00 0.00 0.00 0.00 0.00 0.00 0.00 0.00 0.00 0.00 0.00 0.00 0.00 0.00 0.00 0.00 0.00 0.00 0.00 0.00 0.00 0.01 0.01 0.01 0.01 0.01 0.01 0.00 0.01 0.01
0.00 0.00 0.00 0.00 0.00 0.01 0.01 0.01 0.00 0.00 0.00 0.00 0.00 0.00 0.00 0.00 0.00 0.00 0.00 0.00 0.00 0.00 0.00 0.00 0.00 0.00 0.00 0.00 0.00 0.00 0.00 0.00 0.00 0.00 0.00 0.01 0.01 0.01 0.01 0.01 0.01 0.01 0.01
0.00 0.00 0.00 0.00 0.01 0.01 0.01 0.01 0.00 0.00 0.00 0.00 0.00 0.00 0.00 0.00 0.00 0.00 0.00 0.00 0.00 0.00 0.00 0.00 0.00 0.00 0.00 0.00 0.00 0.00 0.00 0.00 0.00 0.00 0.00 0.00 0.01 0.01 0.01 0.01 0.01 0.00 0.01
0.00 0.00 0.00 0.02 0.03 0.03 0.04 0.01 0.00 0.00 0.00 0.00 0.00 0.00 0.00 0.00 0.00 0.00 0.00 0.00 0.00 0.00 0.00 0.00 0.00 0.00 0.00 0.00 0.00 0.00 0.00 0.00 0.00 0.00 0.00 0.00 0.00 0.01 0.01 0.01 0.01 0.01 0.01
0.00 0.00 0.01 0.02 0.02 0.01 0.00 0.00 0.00 0.00 0.00 0.00 0.00 0.00 0.00 0.00 0.00 0.00 0.00 0.00 0.00 0.00 0.00 0.00 0.00 0.00 0.00 0.00 0.00 0.00 0.00 0.00 0.00 0.00 0.00 0.00 0.00 0.00 0.00 0.00 0.01 0.01 0.01
0.00 0.00 0.00 0.00 0.00 0.00 0.00 0.00 0.00 0.00 0.00 0.00 0.00 0.00 0.00 0.00 0.00 0.00 0.00 0.00 0.00 0.00 0.00 0.00 0.00 0.00 0.00 0.00 0.00 0.00 0.00 0.00 0.00 0.00 0.00 0.00 0.00 0.00 0.00 0.00 0.00 0.01 0.01
0.00 0.00 0.00 0.00 0.00 0.00 0.00 0.00 0.00 0.00 0.00 0.00 0.00 0.00 0.00 0.00 0.00 0.00 0.00 0.00 0.00 0.00 0.00 0.00 0.00 0.00 0.00 0.00 0.00 0.00 0.00 0.00 0.00 0.00 0.00 0.00 0.00 0.00 0.00 0.00 0.00 0.01 0.01
0.00 0.00 0.00 0.00 0.00 0.00 0.00 0.00 0.00 0.00 0.00 0.00 0.00 0.00 0.00 0.00 0.00 0.00 0.00 0.00 0.00 0.00 0.00 0.00 0.00 0.00 0.00 0.00 0.00 0.00 0.00 0.00 0.00 0.00 0.00 0.00 0.00 0.00 0.00 0.00 0.00 0.01 0.01
0.00 0.00 0.00 0.00 0.00 0.01 0.00 0.00 0.00 0.00 0.00 0.00 0.00 0.00 0.00 0.00 0.00 0.00 0.00 0.00 0.00 0.00 0.00 0.00 0.00 0.00 0.00 0.00 0.00 0.00 0.00 0.00 0.00 0.00 0.00 0.00 0.00 0.00 0.00 0.00 0.00 0.01 0.01
0.00 0.00 0.00 0.00 0.01 0.00 0.00 0.00 0.00 0.00 0.00 0.00 0.00 0.00 0.00 0.00 0.00 0.00 0.00 0.00 0.00 0.00 0.00 0.00 0.00 0.00 0.00 0.00 0.00 0.00 0.00 0.00 0.00 0.00 0.00 0.00 0.00 0.00 0.00 0.00 0.00 0.01 0.01
MSLP
1024.01 1024.79 1025.44 1026.29 1026.97 1027.29 1027.83 1028.30 1028.53 1028.98 1029.19 1029.31 1029.41 1029.49 1029.52 1029.73 1029.93 1030.09 1030.03 1029.80 1030.05 1030.01 1029.94 1029.95 1030.01 1029.92 1029.95 1029.95 1029.80 1029.54 1029.39 1029.19 1028.78 1028.00 1027.58 1027.07 1026.84 1026.61 1026.07 1025.43 1024.81 1024.25 1023.63
1023.92 1024.63 1025.27 1026.20 1026.93 1027.29 1027.58 1028.14 1028.57 1028.78 1029.21 1029.34 1029.42 1029.43 1029.45 1029.59 1029.89 1030.01 1030.00 1030.01 1030.09 1030.06 1029.97 1029.92 1029.93 1029.84 1029.90 1029.87 1029.73 1029.70 1029.64 1029.27 1028.88 1028.26 1027.81 1027.38 1027.12 1026.44 1025.84 1025.23 1024.52 1023.84 1023.24
1023.82 1024.57 1025.02 1025.69 1026.52 1027.22 1027.60 1027.97 1028.50 1028.69 1028.93 1029.20 1029.29 1029.46 1029.60 1029.78 1029.84 1029.83 1029.89 1030.17 1030.26 1030.16 1029.98 1029.92 1029.85 1029.78 1029.70 1029.66 1029.79 1029.79 1029.64 1029.36 1029.02 1028.60 1028.05 1027.73 1027.16 1026.26 1025.35 1024.61 1023.96 1023.42 1022.89
1023.64 1024.42 1025.19 1025.80 1026.27 1026.86 1027.39 1027.78 1028.24 1028.62 1028.85 1028.94 1029.10 1029.27 1029.44 1029.57 1029.58 1029.61 1030.18 1030.64 1030.58 1030.25 1029.98 1029.81 1029.61 1029.40 1029.38 1029.48 1029.50 1029.54 1029.42 1029.36 1029.10 1028.75 1028.29 1027.85 1027.17 1026.17 1025.38 1024.63 1023.98 1023.52 1022.68
1023.70 1024.27 1024.93 1025.60 1026.08 1026.54 1027.10 1027.68 1028.01 1028.42 1028.57 1028.70 1028.92 1029.11 1029.27 1029.34 1029.37 1030.13 1030.62 1030.85 1030.79 1030.42 1029.98 1029.41 1029.06 1028.95 1028.74 1028.85 1029.08 1029.09 1029.23 1029.37 1029.29 1028.92 1028.35 1027.71 1026.92 1026.07 1025.33 1024.66 1023.91 1023.01 1022.11
1023.47 1024.08 1024.52 1025.29 1025.80 1026.28 1026.84 1027.34 1027.78 1028.16 1028.45 1028.65 1028.72 1028.88 1028.99 1029.07 1030.31 1030.60 1030.79 1030.93 1030.85 1030.49 1029.86 1029.19 1028.85 1028.66 1028.49 1028.49 1028.65 1029.13 1029.23 1029.12 1029.05 1028.73 1028.16 1027.54 1026.65 1025.97 1025.28 1024.83 1023.89 1022.70 1021.10
1023.28 1023.69 1024.03 1024.80 1025.42 1025.92 1026.45 1026.95 1027.35 1027.75 1028.00 1028.18 1028.43 1028.54 1028.69 1028.96 1030.03 1030.45 1030.72 1030.71 1030.71 1030.29 1029.61 1029.05 1028.73 1028.46 1028.80 1029.08 1028.97 1028.91 1028.71 1028.60 1028.59 1028.33 1027.67 1026.98 1026.32 1025.80 1025.29 1024.51 1023.70 1022.64 1021.35
1022.63 1023.11 1023.54 1024.19 1024.86 1025.38 1025.90 1026.32 1026.78 1027.17 1027.50 1027.79 1028.03 1028.17 1028.42 1028.52 1029.64 1030.17 1030.51 1030.40 1030.21 1029.75 1029.20 1028.99 1028.93 1028.94 1029.20 1029.38 1029.37 1029.05 1028.70 1028.29 1028.04 1027.59 1027.25 1026.50 1025.96 1025.47 1024.98 1024.05 1022.99 1022.05 1020.89
1021.89 1022.35 1022.80 1023.48 1024.21 1024.77 1025.30 1025.75 1026.18 1026.62 1026.98 1027.34 1027.58 1027.79 1028.12 1028.79 1029.51 1029.91 1030.22 1029.91 1029.87 1029.55 1029.10 1029.02 1029.08 1029.01 1028.77 1028.93 1029.09 1028.88 1028.49 1027.99 1027.52 1026.90 1026.36 1025.79 1025.32 1024.69 1023.91 1022.90 1022.24 1021.60 1020.35
1021.05 1021.57 1022.16 1022.78 1023.45 1024.10 1024.71 1025.32 1025.78 1026.17 1026.61 1027.03 1027.26 1027.48 1027.78 1028.28 1028.95 1029.44 1029.76 1029.72 1029.78 1029.63 1029.40 1029.30 1028.95 1028.75 1028.66 1028.71 1028.75 1028.54 1028.10 1027.65 1027.14 1026.55 1025.85 1025.20 1024.66 1023.76 1022.96 1022.38 1021.93 1021.38 1020.67
1020.20 1020.89 1021.45 1022.12 1022.85 1023.48 1024.11 1024.73 1025.28 1025.86 1026.32 1026.67 1026.91 1027.14 1027.34 1027.38 1028.10 1028.83 1029.28 1029.39 1029.55 1029.60 1029.52 1029.25 1028.94 1028.52 1028.38 1028.28 1028.15 1028.01 1027.60 1027.22 1026.78 1026.13 1025.46 1024.82 1023.96 1023.31 1022.69 1022.21 1021.83 1021.40 1020.36
1019.11 1020.06 1020.81 1021.53 1022.29 1023.01 1023.72 1024.36 1024.88 1025.51 1026.07 1026.49 1026.70 1026.86 1026.93 1027.02 1027.31 1028.24 1028.59 1028.86 1029.13 1029.46 1029.32 1029.08 1028.85 1028.41 1028.10 1027.79 1027.55 1027.09 1026.62 1026.58 1026.33 1025.79 1025.17 1024.46 1023.77 1023.10 1022.49 1022.06 1021.36 1020.67 1019.93
1018.25 1019.15 1020.03 1020.88 1021.68 1022.34 1023.06 1023.81 1024.66 1025.05 1025.68 1026.17 1026.46 1026.62 1026.82 1026.87 1026.98 1027.27 1027.82 1028.37 1028.75 1028.97 1028.82 1028.61 1028.26 1028.13 1027.79 1027.39 1026.84 1026.35 1026.19 1026.21 1025.90 1025.57 1025.06 1024.34 1023.73 1023.03 1022.22 1021.44 1020.66 1019.92 1019.08
1017.33 1018.34 1019.31 1020.35 1021.24 1022.03 1022.69 1023.38 1024.05 1024.76 1025.09 1025.61 1026.09 1026.38 1026.59 1026.68 1026.81 1027.10 1027.81 1028.23 1028.42 1028.48 1028.50 1028.60 1028.58 1027.99 1027.39 1026.87 1026.29 1025.90 1025.87 1025.56 1025.31 1025.09 1024.59 1024.10 1023.55 1022.87 1022.08 1021.27 1020.30 1019.41 1018.54
1016.99 1017.99 1019.00 1019.83 1020.73 1021.55 1022.23 1022.86 1023.35 1024.04 1024.45 1024.96 1025.64 1026.13 1026.34 1026.57 1026.97 1027.37 1027.81 1028.16 1028.34 1028.51 1028.61 1028.39 1028.02 1027.35 1026.79 1026.28 1025.97 1025.65 1025.38 1025.10 1024.79 1024.41 1024.16 1023.62 1023.04 1022.39 1021.77 1021.04 1020.16 1019.23 1018.32
1016.46 1017.14 1018.17 1019.33 1020.29 1021.25 1021.99 1023.12 1023.62 1023.93 1024.56 1024.83 1025.19 1026.00 1026.24 1026.38 1026.78 1027.17 1027.50 1027.74 1027.91 1027.93 1028.05 1027.98 1027.42 1026.89 1026.28 1025.98 1025.75 1025.45 1025.04 1024.76 1024.41 1024.06 1023.66 1023.22 1022.71 1022.09 1021.39 1020.67 1019.94 1019.21 1018.19
1015.97 1016.95 1017.87 1018.76 1019.70 1020.59 1021.45 1022.24 1023.30 1024.35 1024.61 1024.90 1025.01 1025.70 1026.21 1026.41 1026.57 1026.97 1027.19 1027.31 1027.37 1027.42 1027.36 1027.00 1026.63 1026.15 1025.84 1025.62 1025.35 1025.07 1024.80 1024.44 1024.14 1023.76 1023.32 1022.86 1022.37 1021.75 1021.19 1020.45 1019.79 1019.10 1018.13
1015.24 1016.23 1017.11 1018.02 1018.94 1019.97 1020.93 1021.94 1022.48 1023.49 1024.24 1024.63 1024.64 1025.26 1025.65 1025.94 1026.18 1026.53 1026.72 1026.90 1026.86 1026.29 1026.13 1026.05 1025.77 1025.60 1025.38 1025.23 1024.89 1024.65 1024.37 1024.07 1023.75 1023.36 1022.99 1022.56 1022.10 1021.60 1020.98 1020.33 1019.66 1019.05 1018.29
1014.65 1015.71 1016.72 1017.80 1018.74 1019.71 1020.55 1021.89 1022.30 1022.86 1023.33 1023.63 1023.85 1024.75 1025.29 1025.29 1025.59 1025.90 1026.19 1026.42 1026.36 1025.99 1025.52 1025.29 1025.04 1024.93 1024.78 1024.59 1024.38 1024.22 1023.97 1023.65 1023.29 1022.97 1022.72 1022.36 1021.97 1021.48 1020.86 1020.30 1019.66 1018.97 1018.22
1014.85 1015.94 1016.90 1017.85 1018.79 1019.69 1020.80 1021.68 1022.02 1022.47 1022.78 1023.10 1023.49 1023.77 1024.31 1024.90 1025.24 1025.42 1025.45 1025.58 1025.62 1025.29 1024.86 1024.70 1024.59 1024.50 1024.36 1024.23 1024.02 1023.76 1023.45 1023.18 1022.92 1022.69 1022.41 1022.13 1021.69 1021.30 1020.91 1020.29 1019.58 1018.82 1017.98
1015.01 1016.27 1016.94 1017.85 1018.68 1019.62 1020.61 1021.11 1021.65 1022.05 1022.17 1022.54 1022.86 1023.02 1023.43 1023.85 1024.22 1024.39 1024.53 1024.57 1024.51 1024.36 1024.26 1024.22 1024.15 1024.04 1023.90 1023.77 1023.60 1023.37 1023.14 1022.92 1022.66 1022.39 1022.09 1021.74 1021.51 1021.26 1020.77 1020.23 1019.53 1018.69 1017.86
1014.83 1016.15 1017.10 1017.65 1018.35 1019.44 1020.12 1020.76 1021.38 1021.40 1021.60 1022.02 1022.32 1022.54 1023.02 1023.46 1023.80 1024.04 1024.08 1023.94 1023.73 1023.63 1023.62 1023.59 1023.63 1023.52 1023.37 1023.30 1023.16 1022.97 1022.81 1022.60 1022.34 1022.04 1021.82 1021.63 1021.38 1021.07 1020.65 1020.02 1019.37 1018.58 1017.72
1014.94 1016.09 1017.07 1017.71 1018.27 1019.07 1019.92 1020.55 1020.70 1020.79 1021.18 1021.55 1021.94 1022.33 1022.88 1023.10 1023.14 1023.14 1023.09 1023.06 1023.10 1023.07 1023.08 1023.09 1023.14 1023.05 1022.87 1022.74 1022.59 1022.49 1022.32 1022.08 1021.84 1021.70 1021.62 1021.44 1021.14 1020.77 1020.40 1019.93 1019.19 1018.39 1017.56
1014.87 1016.05 1016.95 1017.60 1018.27 1019.01 1019.60 1020.10 1020.14 1020.39 1020.77 1021.21 1021.58 1021.79 1022.00 1022.14 1022.27 1022.37 1022.45 1022.52 1022.42 1022.38 1022.35 1022.44 1022.50 1022.36 1022.19 1022.16 1021.97 1021.72 1021.54 1021.47 1021.29 1021.18 1021.13 1021.07 1020.78 1020.37 1019.94 1019.41 1018.92 1018.20 1017.37
1015.28 1016.18 1016.86 1017.45 1018.12 1018.76 1019.34 1019.46 1019.83 1020.18 1020.49 1020.83 1021.18 1021.43 1021.61 1021.66 1021.72 1021.82 1021.90 1021.81 1021.83 1021.85 1021.85 1021.81 1021.69 1021.61 1021.51 1021.39 1021.24 1021.12 1020.95 1020.84 1020.85 1020.88 1020.81 1020.57 1020.26 1019.85 1019.43 1018.85 1018.22 1017.49 1016.75
1015.46 1016.13 1016.76 1017.34 1017.97 1018.51 1018.86 1019.14 1019.55 1019.89 1020.18 1020.40 1020.62 1020.82 1020.97 1021.12 1021.22 1021.25 1021.26 1021.28 1021.35 1021.24 1021.21 1021.16 1021.07 1021.00 1020.98 1020.84 1020.61 1020.40 1020.47 1020.47 1020.38 1020.21 1020.10 1019.83 1019.48 1019.06 1018.66 1018.05 1017.55 1017.08 1016.33
Thickness
5584 5576 5569 5559 5550 5544 5536 5527 5520 5511 5503 5496 5489 5482 5476 5469 5462 5456 5451 5447 5440 5435 5430 5424 5419 5415 5410 5406 5403 5401 5399 5397 5398 5403 5402 5401 5399 5397 5398 5400 5402 5403 5403
5580 5573 5564 5554 5545 5538 5530 5521 5511 5504 5494 5487 5480 5474 5467 5460 5453 5446 5441 5435 5429 5424 5419 5413 5408 5404 5398 5394 5390 5387 5383 5383 5382 5384 5384 5383 5380 5380 5379 5379 5378 5377 5378
5576 5567 5561 5552 5541 5530 5521 5513 5503 5495 5487 5478 5471 5464 5456 5449 5443 5437 5431 5424 5417 5412 5408 5402 5397 5392 5387 5382 5376 5372 5369 5368 5366 5365 5365 5361 5360 5361 5364 5363 5362 5359 5356
5572 5563 5552 5543 5535 5525 5516 5506 5496 5487 5479 5472 5464 5456 5448 5440 5433 5428 5419 5410 5404 5400 5395 5391 5387 5383 5378 5371 5366 5360 5357 5352 5349 5346 5344 5341 5339 5341 5340 5338 5338 5332 5331
5565 5556 5546 5536 5527 5519 5508 5498 5489 5479 5471 5464 5456 5447 5438 5431 5423 5415 5406 5397 5391 5387 5384 5381 5378 5373 5370 5364 5356 5350 5343 5336 5331 5327 5326 5324 5322 5321 5319 5318 5317 5317 5319
5559 5549 5541 5529 5520 5511 5500 5491 5481 5472 5463 5454 5447 5439 5430 5421 5410 5402 5395 5386 5379 5375 5373 5372 5367 5362 5358 5352 5346 5337 5329 5322 5316 5311 5309 5305 5304 5300 5297 5293 5294 5297 5305
5551 5543 5536 5524 5513 5504 5494 5484 5475 5465 5457 5448 5439 5431 5423 5414 5401 5392 5384 5376 5369 5365 5363 5361 5356 5350 5345 5336 5331 5324 5318 5309 5301 5295 5293 5291 5287 5280 5277 5275 5270 5270 5272
5548 5539 5530 5519 5507 5498 5489 5479 5469 5459 5450 5440 5431 5423 5415 5407 5394 5383 5374 5367 5361 5358 5354 5349 5343 5336 5330 5323 5317 5312 5306 5299 5292 5284 5277 5274 5268 5263 5256 5253 5252 5250 5250
5544 5535 5526 5514 5502 5492 5482 5472 5463 5453 5443 5432 5424 5415 5407 5398 5384 5373 5364 5359 5352 5347 5342 5336 5329 5323 5317 5311 5305 5299 5294 5288 5281 5275 5269 5262 5256 5249 5241 5238 5233 5227 5229
5539 5530 5520 5509 5497 5486 5475 5465 5455 5445 5434 5423 5414 5406 5399 5389 5377 5365 5356 5349 5341 5336 5330 5322 5316 5312 5306 5298 5291 5285 5281 5277 5271 5265 5259 5251 5244 5239 5232 5222 5213 5205 5200
5536 5524 5514 5502 5489 5479 5469 5458 5448 5436 5425 5415 5406 5399 5390 5382 5373 5359 5348 5341 5333 5324 5318 5312 5306 5300 5294 5287 5281 5274 5269 5264 5258 5253 5247 5240 5234 5226 5218 5206 5194 5184 5185
5533 5519 5507 5495 5483 5472 5460 5450 5439 5427 5416 5406 5398 5390 5381 5373 5365 5354 5343 5333 5324 5315 5308 5301 5295 5290 5285 5279 5272 5266 5259 5251 5245 5240 5234 5228 5221 5213 5205 5193 5184 5178 5174
5526 5514 5501 5488 5477 5466 5455 5443 5431 5420 5408 5398 5389 5380 5372 5364 5357 5349 5338 5327 5316 5307 5300 5293 5287 5280 5275 5270 5263 5256 5249 5240 5233 5226 5219 5213 5206 5198 5191 5183 5177 5173 5174
5520 5507 5494 5481 5468 5457 5445 5435 5423 5410 5402 5392 5382 5372 5363 5354 5348 5340 5328 5318 5308 5300 5292 5283 5276 5271 5266 5261 5256 5247 5239 5231 5222 5215 5208 5199 5191 5183 5175 5169 5167 5167 5170
5509 5496 5484 5474 5461 5449 5438 5427 5417 5407 5396 5387 5376 5365 5354 5345 5337 5327 5317 5307 5297 5289 5281 5273 5267 5263 5258 5252 5245 5237 5229 5222 5214 5205 5195 5188 5180 5172 5163 5157 5155 5158 5161
5498 5490 5477 5464 5454 5440 5429 5414 5404 5396 5385 5377 5368 5356 5345 5336 5327 5318 5309 5299 5288 5281 5271 5263 5259 5255 5250 5243 5235 5227 5218 5210 5203 5194 5185 5177 5169 5160 5153 5147 5145 5146 5151
5489 5477 5466 5456 5445 5433 5420 5410 5396 5381 5375 5366 5359 5347 5335 5327 5319 5309 5300 5290 5281 5273 5265 5260 5254 5249 5241 5233 5224 5216 5208 5198 5190 5182 5173 5165 5156 5148 5140 5137 5135 5137 5142
5480 5468 5460 5450 5438 5425 5414 5399 5390 5380 5367 5358 5352 5340 5329 5320 5311 5302 5292 5283 5274 5269 5263 5255 5248 5240 5231 5222 5213 5205 5197 5188 5179 5171 5161 5152 5143 5135 5130 5126 5126 5128 5131
5471 5459 5450 5438 5425 5413 5403 5387 5380 5372 5363 5356 5348 5334 5323 5314 5305 5295 5286 5275 5266 5260 5254 5248 5240 5231 5222 5214 5205 5195 5186 5177 5169 5159 5149 5139 5130 5123 5119 5116 5117 5119 5123
5457 5443 5432 5422 5410 5398 5386 5377 5370 5362 5355 5348 5339 5331 5321 5308 5298 5288 5279 5270 5261 5255 5249 5240 5231 5222 5212 5203 5194 5186 5177 5167 5158 5147 5136 5126 5118 5112 5107 5106 5108 5112 5117
5438 5425 5417 5406 5396 5386 5375 5369 5360 5353 5348 5340 5333 5326 5315 5304 5296 5286 5275 5266 5258 5250 5240 5231 5221 5212 5203 5193 5185 5176 5166 5155 5146 5135 5125 5116 5106 5100 5097 5096 5099 5105 5110
5424 5410 5401 5394 5388 5376 5367 5359 5350 5347 5342 5334 5326 5318 5307 5296 5286 5275 5267 5260 5253 5243 5233 5223 5213 5203 5194 5184 5175 5165 5155 5144 5134 5123 5113 5103 5095 5090 5088 5089 5091 5097 5103
5409 5398 5388 5383 5377 5367 5357 5348 5346 5341 5334 5327 5318 5309 5298 5289 5280 5272 5264 5255 5246 5235 5225 5214 5204 5195 5185 5174 5163 5153 5143 5133 5122 5111 5101 5092 5085 5081 5079 5079 5083 5090 5096
5399 5387 5379 5372 5364 5357 5350 5343 5340 5335 5328 5319 5310 5302 5293 5284 5276 5268 5258 5248 5238 5228 5219 5208 5197 5187 5177 5166 5155 5144 5132 5120 5109 5100 5090 5082 5076 5073 5072 5074 5077 5082 5090
5384 5375 5369 5364 5356 5348 5341 5339 5332 5325 5319 5311 5301 5293 5285 5278 5269 5261 5251 5241 5232 5222 5211 5200 5190 5180 5168 5157 5146 5135 5123 5110 5098 5087 5079 5072 5068 5065 5065 5068 5073 5080 5087
5373 5367 5362 5356 5348 5340 5337 5332 5325 5318 5311 5304 5296 5289 5280 5272 5263 5254 5244 5234 5224 5214 5204 5193 5181 5170 5158 5147 5135 5123 5110 5098 5087 5078 5071 5065 5062 5060 5061 5065 5070 5075 5082